User: anonymous   Login
Location: Vancouver
(49.2500°N, 123.1330°W)
Time: 21:24:27
(UTC-07:00)
Language:

Cosmos 676 Rocket - Orbit

View from above orbital plane
View from above orbital plane
View from above satellite
View from above satellite

Ground track
Ground track

The orbit data is extracted from the following two-line orbital elements,

1 07434U 74071B   15086.95456649  .00000434  00000-0  15662-3 0  9999
2 07434 074.0456 265.4486 0020462 014.2082 345.9642 14.36434907120076
Epoch (UTC): 27 March 2015 22:54:34
Eccentricity: 0.0020462
inclination: 74.0456°
perigee height: 755 km
apogee height: 785 km
right ascension of ascending node: 265.4486°
argument of perigee: 14.2082°
revolutions per day: 14.36434907
mean anomaly at epoch: 345.9642°
orbit number at epoch: 12007

The dashed part of the orbit path shows where the satellite is in the earth's shadow,  

DLR